Zurück zum Katalog

CZ-3C DEB

AktivGTO
NORAD 40862·DEBRIS·🇨🇳 China

Gestartet Feb 24, 2012 von Xichang Satellite Launch Center

Loading…

TLE

VeraltetSource: Space-Track

Epoche: Sep 12, 2026, 17:54 UTC

1 40862U 12008AC  26255.74605893  .00000323  00000-0  67419-2 0  9990
2 40862  18.3036 113.1816 7306176  94.1887 344.1279  2.08001940  1231

Verfolge CZ-3C DEB in Echtzeit mit AllMySat

Download on the App Store